Wind_Speed
41 40 42 41 35 30 32 38 36 29 29 30 29 30 28 23 23 22 17 18 20 20 19 17 15 17 17 16 17 18 15 15 15 14 13 12 13 14 17 23 29 28 25 24 24 24 27 28 29 29 28 28 27 27 27 26 25 23 22 21 20 20 19
42 43 42 45 44 32 25 32 36 31 29 32 32 31 31 28 23 20 19 19 18 16 18 19 17 18 18 17 17 17 15 15 15 14 13 12 12 14 16 21 30 32 28 26 26 25 27 27 27 28 29 30 29 28 28 26 25 24 22 22 21 21 20
39 45 44 44 47 41 30 25 28 30 28 30 32 29 29 32 27 21 21 18 14 15 17 17 16 18 19 18 17 15 15 15 15 15 15 14 13 14 16 19 28 33 29 27 28 27 28 28 27 28 30 30 28 28 28 27 25 24 22 22 22 21 21
37 44 44 44 45 44 41 31 24 24 23 24 29 27 25 28 28 24 22 18 17 19 19 15 16 18 17 18 19 16 14 16 16 15 16 16 15 15 16 17 24 33 30 28 29 28 28 29 28 28 29 28 27 27 27 26 25 24 23 23 22 22 22
31 42 43 44 45 43 44 40 31 26 21 20 25 26 25 25 24 22 18 15 17 19 19 16 17 20 18 18 19 17 15 16 16 15 15 16 15 16 17 15 19 30 32 30 30 29 29 30 30 28 27 26 27 26 26 25 24 24 23 23 23 23 23
21 36 42 43 43 41 41 43 40 31 22 20 23 23 23 24 22 19 16 14 14 16 18 18 17 19 19 19 20 18 15 15 15 13 14 15 16 16 18 17 19 26 32 32 30 30 30 31 30 28 25 24 24 25 26 25 24 24 23 22 22 22 22
12 23 36 42 40 35 35 40 43 36 25 23 24 20 19 22 20 18 19 18 16 16 18 18 16 18 19 20 22 20 15 13 14 14 13 14 15 15 16 18 20 25 32 35 32 31 31 30 30 27 23 21 23 26 27 25 25 24 22 22 22 21 21
13 11 22 37 40 35 33 36 41 41 32 25 24 20 17 20 21 21 22 22 21 20 18 16 15 17 19 21 24 21 16 14 15 16 14 13 14 14 14 16 18 24 33 37 35 33 32 30 29 28 25 25 29 31 28 26 26 24 22 22 21 20 20
19 13 15 30 41 43 39 34 37 43 40 31 27 25 23 21 19 19 22 23 24 24 21 19 18 18 20 23 23 20 17 16 16 16 15 13 13 13 13 14 14 19 29 36 35 33 33 31 31 32 31 32 35 33 30 28 26 24 23 23 21 21 20
27 21 19 26 38 46 44 37 35 39 38 33 27 26 28 25 19 19 23 26 27 25 24 23 21 21 23 24 22 20 20 19 16 15 15 15 14 13 13 14 14 16 24 33 35 34 34 34 34 34 34 35 35 33 30 28 26 24 24 23 22 22 21
34 29 26 23 27 38 45 41 35 30 30 32 28 21 22 26 25 23 24 27 29 27 25 25 25 25 25 26 24 22 22 20 18 17 17 16 15 14 14 15 16 17 20 27 35 38 37 36 36 34 34 35 35 33 31 29 27 26 25 24 23 22 21
38 35 33 26 20 26 36 37 33 29 30 35 35 26 21 25 26 24 25 28 29 28 26 25 26 27 28 28 27 24 23 22 21 21 19 17 16 15 15 16 16 17 19 23 32 40 42 40 38 37 35 36 36 34 33 31 29 28 26 25 24 23 23
37 34 35 32 21 17 22 26 31 35 35 38 42 36 31 32 31 28 29 32 32 31 31 28 25 27 30 29 28 27 25 23 23 23 22 20 18 17 17 17 16 16 19 20 25 36 45 43 38 37 36 36 37 37 35 34 32 30 29 26 25 25 25
37 33 31 31 26 20 22 30 35 35 33 37 41 38 34 38 39 37 36 35 33 34 34 30 27 27 29 30 28 28 26 24 24 25 24 23 22 20 20 19 16 15 15 15 17 27 41 44 39 37 37 38 38 38 37 37 35 33 31 29 28 28 27
35 34 28 27 29 27 27 31 35 34 32 34 37 37 38 40 39 40 40 37 35 33 28 26 27 27 27 28 27 27 25 23 24 26 26 24 24 24 22 19 18 17 15 14 14 19 29 35 35 36 39 42 42 42 42 41 39 37 35 33 32 32 30
32 35 30 24 25 28 29 31 34 37 37 37 39 41 42 39 37 40 43 40 37 34 27 23 25 27 28 27 26 26 25 24 26 27 25 23 25 25 21 17 18 20 18 16 17 17 21 25 26 26 30 36 40 43 44 45 43 41 39 37 35 34 33
28 32 33 27 23 26 32 34 34 36 37 38 42 43 40 39 38 40 42 41 36 33 29 24 23 27 29 29 28 28 27 28 31 30 26 25 27 26 21 18 19 21 19 18 17 18 20 21 21 22 24 26 28 29 32 39 44 43 39 38 36 35 35
27 29 33 31 25 26 31 33 34 35 34 34 39 42 40 40 40 38 39 38 33 29 28 26 24 25 27 29 30 30 31 33 35 35 33 31 29 26 22 22 21 19 18 19 19 18 18 17 19 21 22 23 23 20 18 24 35 41 39 37 34 34 34
26 28 33 33 30 29 30 31 34 36 34 31 33 36 37 38 40 41 38 34 31 30 28 27 27 26 26 27 29 30 32 35 35 33 32 30 26 24 23 24 24 22 20 20 21 20 19 17 18 19 19 20 21 20 15 14 21 30 33 31 29 29 30
24 25 31 35 35 35 32 29 32 36 36 33 31 32 34 35 37 39 37 32 31 31 29 28 28 28 27 28 30 31 33 35 34 31 30 27 23 22 22 23 25 26 24 22 22 22 21 19 19 19 20 20 20 19 17 15 17 20 21 21 22 23 24
25 22 27 33 34 33 33 31 31 33 35 34 31 30 31 33 32 33 34 31 30 31 31 30 29 29 29 31 32 34 35 35 33 32 32 27 23 23 25 25 26 27 27 25 23 23 22 21 20 20 21 22 22 21 20 19 20 20 19 20 20 21 22
31 28 26 30 30 27 30 32 32 32 32 32 32 30 30 32 31 29 31 31 31 31 32 32 32 32 32 33 34 35 37 38 36 34 32 30 30 32 33 30 27 27 28 28 25 24 24 23 22 22 22 22 23 23 22 22 23 23 23 23 22 22 23
29 31 25 30 32 27 25 29 30 31 32 31 32 31 31 33 31 28 28 30 30 30 31 32 33 35 35 35 35 36 37 38 38 36 32 31 33 35 34 31 29 28 28 28 28 27 26 25 24 25 25 24 24 24 23 25 26 25 24 25 25 25 25
21 25 23 30 36 31 25 26 28 30 31 31 32 33 33 33 33 30 29 28 29 29 29 30 32 35 36 37 37 37 37 37 37 37 36 34 33 31 29 29 30 29 28 29 29 28 27 26 26 26 27 27 27 26 25 26 27 26 26 27 28 27 26
17 21 22 25 30 31 29 29 30 32 33 34 35 36 34 32 33 33 32 30 30 30 30 30 31 33 34 34 35 35 35 36 38 39 38 37 36 35 32 30 30 31 30 29 29 30 30 29 28 28 28 29 29 29 29 28 28 28 29 29 29 28 27
15 19 23 20 21 26 28 27 29 32 35 37 38 38 36 35 34 34 33 33 32 32 31 31 32 31 31 31 32 33 33 35 36 37 37 36 37 38 37 34 33 33 32 31 32 32 32 32 31 30 29 30 30 31 31 31 30 31 31 30 31 32 31
14 17 22 19 15 19 22 23 24 27 31 35 36 37 37 36 35 35 34 34 34 34 33 33 33 33 32 32 33 33 33 34 34 34 36 36 36 37 37 35 35 34 34 34 35 35 35 34 33 32 32 32 31 32 33 33 32 33 34 32 32 33 33
15 16 19 18 14 15 17 19 19 20 22 26 30 32 34 34 35 35 36 36 36 37 36 36 36 35 34 34 34 34 34 34 34 34 35 37 38 38 38 37 36 36 35 36 37 38 38 36 35 36 37 37 35 33 34 35 33 34 35 35 34 33 33
15 14 14 14 14 14 14 14 15 16 17 18 21 24 26 29 31 32 33 34 36 37 39 39 38 38 38 38 37 37 37 36 36 37 38 39 39 39 38 39 38 37 37 38 38 38 39 38 36 34 36 39 39 36 35 36 36 35 35 35 35 35 35
12 11 10 11 11 11 11 12 12 13 14 16 17 19 20 22 24 26 29 30 31 33 35 36 37 38 39 39 40 40 40 40 39 39 39 40 40 39 38 39 40 39 39 39 39 39 39 39 37 35 33 35 39 40 38 38 38 37 37 36 36 36 36
11 11 10 10 10 10 11 11 11 12 13 14 15 16 17 18 19 20 23 25 27 28 29 30 32 33 35 36 38 39 40 40 41 41 41 42 43 42 42 42 43 42 42 41 41 41 42 41 40 39 37 35 37 40 41 40 40 40 39 39 39 38 38
10 11 11 11 11 11 11 11 11 12 12 12 13 13 14 14 15 16 17 19 21 23 25 26 28 30 32 34 36 37 38 39 39 40 40 41 42 44 45 47 47 47 46 45 44 44 45 44 43 41 40 37 37 39 43 43 42 42 42 41 41 42 42
11 11 11 12 12 12 12 12 12 12 12 12 12 12 12 13 14 15 15 16 18 20 21 23 25 28 30 32 34 36 38 39 40 41 41 40 40 41 42 44 47 48 48 48 48 47 46 47 45 43 42 40 39 40 43 45 45 44 44 44 44 44 44
13 12 13 14 14 13 12 12 11 12 12 12 13 13 13 14 15 16 16 17 18 19 20 22 24 26 27 29 32 34 36 38 40 41 42 42 42 41 41 41 43 45 46 47 48 48 47 47 47 45 44 43 42 42 43 46 47 47 46 47 47 47 47
14 13 14 15 16 15 14 14 14 14 14 14 14 15 15 16 17 17 18 19 20 21 22 23 24 26 27 28 30 32 34 36 39 40 40 42 43 43 43 43 43 44 45 46 46 46 47 48 47 46 45 44 44 44 44 46 49 49 49 49 50 50 49
17 16 16 17 18 18 17 17 18 18 18 18 18 18 19 19 20 20 21 22 22 23 24 25 26 27 28 29 30 31 33 35 38 38 39 40 42 43 43 44 44 46 47 47 47 46 47 47 48 48 47 47 46 46 46 47 49 51 52 52 52 52 51
20 19 19 20 21 21 21 21 21 21 22 22 22 22 23 24 25 25 25 25 25 26 26 27 28 29 30 31 31 32 33 34 36 37 38 39 41 42 43 43 44 46 47 48 49 49 49 49 49 49 49 49 49 49 48 48 49 51 53 55 55 54 53
Wind_Direction
219 213 211 218 216 211 217 217 219 223 220 219 216 215 213 208 212 216 218 221 221 226 233 236 241 240 235 235 239 244 245 245 248 248 249 251 254 256 245 230 225 224 224 226 226 224 221 218 218 218 219 219 220 222 223 224 225 224 223 222 223 225 226
218 213 209 218 218 212 216 216 219 224 225 224 219 215 214 212 217 222 219 223 227 230 230 229 235 240 238 235 237 242 244 243 245 244 244 247 247 248 249 239 227 221 221 222 223 225 224 220 218 220 220 219 220 222 223 224 224 225 224 224 225 226 227
218 215 209 216 218 215 216 214 214 219 224 227 224 218 215 216 222 224 217 218 229 241 234 224 231 239 237 236 233 234 240 244 246 246 244 247 248 245 252 248 226 216 219 221 220 225 227 223 220 222 223 221 221 223 225 225 226 225 226 226 226 227 228
220 216 210 214 218 219 222 219 211 211 217 224 223 220 215 216 221 222 221 222 226 235 237 229 235 238 234 234 232 227 233 242 243 244 246 249 252 249 253 253 223 211 216 220 219 223 227 225 223 224 225 223 222 223 225 226 227 227 227 227 227 228 228
223 218 212 212 216 221 224 223 219 213 213 216 216 218 217 216 218 217 218 225 228 232 237 236 240 245 242 238 236 230 229 237 239 240 245 244 247 246 244 247 229 215 216 220 219 222 225 226 226 225 224 225 224 224 225 227 227 228 228 227 227 228 228
224 220 216 212 215 222 225 226 224 221 222 223 219 220 221 219 221 221 218 225 238 239 240 242 241 244 247 243 240 237 232 238 240 237 242 239 237 238 235 238 237 224 219 220 220 222 226 229 229 226 222 223 225 226 226 227 227 228 228 228 228 227 227
221 224 219 213 213 220 227 229 225 220 220 225 223 222 228 226 224 230 230 231 243 243 240 247 242 234 240 241 238 238 236 240 239 233 236 234 229 230 229 231 237 230 221 218 217 219 224 228 228 225 218 214 222 229 227 224 225 227 227 227 228 228 227
204 222 222 215 212 213 221 227 226 220 216 221 223 220 231 237 230 231 232 232 245 251 244 248 247 234 234 236 236 236 235 238 240 235 233 229 224 225 223 222 230 231 222 215 214 217 222 225 225 223 217 214 222 230 229 224 224 226 226 227 229 230 230
203 199 209 214 214 214 216 221 225 222 217 221 231 228 228 235 236 238 237 233 244 253 247 243 245 238 233 235 237 236 234 236 237 233 231 229 223 220 219 215 218 225 219 213 214 218 222 224 223 221 221 221 225 229 230 228 226 226 226 227 227 227 229
210 202 203 212 217 219 218 218 223 224 220 220 230 235 234 233 234 240 240 237 240 245 243 238 235 234 232 232 235 236 236 237 233 229 231 231 226 219 218 215 212 217 218 216 217 220 223 226 225 224 225 226 228 229 229 229 228 227 227 228 228 229 229
212 210 211 214 218 221 221 221 221 223 222 218 216 221 231 232 232 232 233 238 240 239 239 236 228 227 228 227 230 234 238 238 234 231 230 228 225 222 221 220 219 222 226 225 221 219 222 226 225 224 226 229 231 231 230 229 228 228 227 226 227 229 230
216 217 219 222 219 217 221 224 221 217 218 217 213 210 215 221 225 228 231 237 240 235 232 232 226 224 225 225 228 233 239 239 233 228 228 227 222 221 223 223 224 229 236 236 227 220 221 225 226 225 227 230 233 232 231 230 229 229 228 225 224 227 229
216 218 220 223 217 206 211 216 218 221 223 223 222 221 223 223 222 222 227 232 237 235 232 231 226 222 224 226 228 233 240 243 232 220 221 225 219 215 221 225 228 235 239 242 234 224 221 224 226 226 226 230 233 234 233 232 231 230 230 228 226 225 227
212 214 218 219 215 206 206 209 214 221 225 227 228 228 230 230 226 224 227 230 234 236 235 230 222 219 223 227 230 235 240 246 237 219 214 222 223 218 221 223 226 233 239 239 233 225 223 225 228 231 230 231 233 234 234 233 232 231 230 229 228 227 226
209 211 213 215 215 215 213 213 217 220 220 223 226 225 226 228 227 226 229 230 232 236 238 229 219 217 222 228 234 237 240 245 240 221 210 215 222 223 224 225 226 229 233 231 224 222 223 226 231 234 233 233 234 235 235 235 234 233 231 229 228 227 226
208 210 212 214 215 218 219 217 218 219 218 221 223 223 224 226 225 226 228 230 233 236 239 234 222 219 224 229 236 240 242 245 240 226 213 210 218 226 232 236 236 233 232 231 231 233 233 231 233 234 231 231 232 234 237 237 235 235 235 233 230 229 229
203 203 210 212 209 216 222 220 218 218 218 221 223 222 224 225 224 225 228 230 232 233 234 234 225 220 224 230 236 241 244 246 242 233 222 215 221 232 238 240 242 240 237 237 238 242 244 241 239 235 231 230 230 232 236 236 234 234 235 236 236 236 236
200 196 203 207 204 210 219 219 217 216 216 219 221 219 221 223 223 224 227 229 228 225 226 230 228 224 226 231 236 240 243 246 243 236 230 228 231 238 240 239 244 248 248 247 245 244 248 252 250 244 239 236 235 237 240 236 232 231 233 236 238 239 239
195 195 199 203 207 213 217 217 217 217 217 218 219 217 218 221 223 226 230 231 230 228 228 233 235 234 235 236 239 242 243 244 244 241 240 240 238 237 236 237 242 249 254 256 254 251 251 256 260 260 255 248 243 243 242 234 227 226 228 232 234 235 239
188 192 196 203 212 216 218 218 218 219 221 222 221 219 221 223 225 229 234 237 238 236 235 236 237 237 238 239 240 241 241 242 244 244 244 243 237 235 239 242 245 252 256 257 259 258 255 256 261 267 268 265 259 251 244 240 237 231 228 231 232 232 235
198 194 196 204 212 217 220 221 219 219 222 225 224 223 225 226 227 230 234 237 238 236 234 234 235 236 237 238 239 240 240 241 245 245 242 243 244 247 252 252 251 254 256 256 257 259 260 259 259 262 265 268 268 263 255 251 247 242 239 235 233 234 235
207 207 207 207 207 209 213 217 216 214 217 220 224 226 228 231 232 232 234 237 238 238 237 236 236 236 238 239 239 240 240 242 246 248 245 248 255 258 257 254 250 251 254 255 255 255 256 256 255 255 255 258 263 265 265 262 255 249 247 243 239 238 240
201 207 214 213 210 207 205 206 208 210 212 216 222 225 227 230 233 235 236 238 240 241 241 240 240 239 240 241 241 242 243 246 250 252 250 249 252 251 249 245 244 245 248 251 253 254 253 252 250 248 247 247 249 253 258 261 261 258 256 252 247 244 244
195 201 211 214 213 214 212 210 211 213 215 216 219 221 222 225 230 233 235 238 240 242 243 244 244 244 242 242 242 242 244 246 249 250 249 246 244 243 240 239 240 241 242 245 249 252 253 252 248 246 243 241 240 242 244 249 253 256 254 251 249 248 246
204 207 215 219 219 219 219 218 217 217 217 216 219 223 225 225 228 231 233 237 240 242 243 243 243 242 241 242 242 242 243 244 246 247 248 246 244 246 246 242 242 245 246 247 249 251 253 253 250 248 245 242 239 239 239 239 242 246 248 248 248 249 247
208 210 215 221 223 221 221 220 217 215 217 219 223 227 229 228 228 230 233 236 239 241 242 242 242 242 242 243 245 245 245 246 247 249 250 250 248 249 249 247 246 249 251 251 250 251 252 252 252 252 249 246 244 242 241 240 238 240 243 245 245 247 248
205 204 210 219 225 222 224 227 224 221 220 221 223 226 228 228 229 230 233 236 239 242 242 241 243 246 245 246 248 248 248 249 250 249 249 250 250 251 252 253 252 252 250 249 249 249 249 249 251 254 254 252 249 246 244 243 240 238 240 244 245 247 249
202 202 211 221 226 225 229 233 234 234 230 227 226 225 226 228 227 228 230 233 237 241 241 240 243 246 247 247 248 249 249 249 249 248 246 248 251 253 253 254 254 253 250 249 250 251 252 252 252 254 257 256 253 249 247 245 243 241 241 243 246 248 250
205 207 213 219 220 223 228 228 230 235 235 233 232 229 228 229 229 229 231 232 234 236 237 237 239 242 245 247 248 248 248 248 248 248 249 250 253 254 254 254 254 252 250 250 250 251 253 254 255 255 256 253 250 248 248 246 245 245 244 244 246 248 249
208 211 213 214 213 213 212 211 214 222 225 227 230 231 231 232 232 234 236 237 239 239 239 239 239 240 242 244 245 246 247 248 249 250 251 253 253 253 253 254 254 253 252 252 251 251 252 255 256 258 258 252 247 245 245 245 245 245 246 246 247 249 250
203 203 202 201 199 197 198 200 202 208 213 218 221 226 230 234 235 237 238 241 243 244 245 246 247 247 247 247 248 249 250 252 252 252 252 253 254 254 255 256 256 256 256 255 254 253 254 256 257 258 259 258 253 247 243 242 244 244 245 247 248 250 251
203 199 198 198 196 195 195 196 197 201 208 213 217 223 229 235 239 242 244 245 246 247 248 250 251 251 252 252 252 254 255 256 256 255 254 254 254 254 255 256 257 257 257 256 256 255 255 256 257 257 257 257 257 251 244 241 243 244 244 245 247 248 250
210 204 204 206 205 203 203 204 205 208 212 217 222 227 232 239 244 248 251 253 255 255 254 254 254 254 254 254 254 254 255 256 257 257 257 256 256 255 254 254 256 256 256 256 256 255 255 255 255 256 255 253 253 251 246 242 241 243 244 245 246 248 249
221 215 213 215 214 213 214 218 221 223 225 227 230 233 236 240 245 250 254 256 258 259 260 259 259 259 258 257 257 256 256 256 256 256 256 256 257 256 255 254 254 255 255 255 255 254 254 253 253 255 256 254 251 250 247 243 241 243 245 245 246 248 249
231 228 226 228 229 228 228 232 236 238 238 239 241 242 245 247 248 251 255 257 259 261 262 262 262 262 262 261 261 260 259 258 257 257 257 256 257 257 256 255 255 255 255 255 255 254 254 254 254 255 256 256 253 251 249 245 242 243 245 246 246 248 249
242 241 241 244 247 248 246 245 245 245 245 246 248 251 253 255 256 257 258 259 260 262 263 264 263 263 263 263 263 262 261 260 260 260 260 259 259 259 258 258 257 257 257 257 256 255 255 255 255 255 255 256 255 254 252 249 246 245 245 245 246 247 248
249 250 251 253 255 257 257 256 254 252 252 252 254 257 261 263 264 264 263 262 263 263 264 264 264 263 263 264 263 263 263 262 262 262 262 261 261 261 260 260 259 258 259 258 258 257 257 256 255 255 255 255 255 255 254 253 251 249 247 245 245 246 246
Height
5841 5846 5852 5853 5855 5860 5862 5864 5867 5869 5872 5874 5876 5878 5880 5882 5884 5885 5887 5889 5889 5891 5892 5893 5895 5897 5898 5900 5899 5898 5900 5902 5904 5906 5907 5908 5910 5912 5913 5915 5917 5919 5921 5923 5924 5926 5927 5928 5930 5931 5932 5933 5935 5936 5938 5939 5941 5943 5944 5946 5947 5948 5949
5839 5842 5848 5849 5852 5858 5859 5862 5867 5868 5869 5871 5873 5876 5879 5881 5883 5884 5887 5889 5889 5890 5891 5893 5895 5895 5897 5898 5898 5898 5899 5901 5903 5904 5905 5907 5909 5910 5911 5913 5915 5917 5919 5921 5923 5924 5926 5927 5929 5930 5931 5932 5933 5935 5936 5938 5939 5941 5943 5944 5946 5947 5948
5838 5840 5845 5847 5850 5854 5856 5860 5864 5865 5867 5870 5872 5876 5878 5880 5881 5883 5885 5887 5888 5889 5889 5892 5893 5893 5895 5896 5897 5897 5897 5898 5900 5902 5903 5904 5906 5908 5909 5910 5912 5914 5917 5919 5921 5923 5924 5926 5928 5929 5929 5931 5933 5934 5935 5937 5938 5940 5941 5943 5944 5945 5947
5835 5837 5842 5845 5849 5852 5854 5857 5862 5864 5866 5868 5871 5874 5877 5878 5880 5882 5883 5885 5886 5886 5887 5890 5890 5890 5892 5893 5894 5895 5895 5897 5899 5899 5900 5902 5903 5905 5906 5907 5909 5912 5915 5917 5919 5921 5923 5925 5926 5927 5929 5931 5932 5932 5934 5935 5936 5938 5940 5941 5942 5944 5945
5832 5836 5840 5844 5848 5850 5852 5856 5860 5863 5865 5866 5869 5872 5874 5876 5878 5881 5882 5883 5884 5884 5885 5888 5888 5887 5889 5890 5892 5894 5894 5895 5897 5898 5899 5901 5902 5903 5904 5905 5908 5911 5913 5915 5917 5919 5921 5923 5925 5927 5928 5930 5930 5931 5932 5933 5934 5936 5938 5939 5941 5942 5943
5833 5835 5839 5843 5847 5849 5851 5854 5857 5862 5865 5866 5868 5870 5873 5875 5877 5879 5881 5882 5883 5883 5883 5885 5886 5886 5887 5888 5890 5891 5892 5893 5894 5896 5898 5899 5901 5902 5903 5904 5907 5909 5911 5913 5915 5917 5920 5922 5924 5926 5928 5929 5929 5930 5930 5931 5932 5934 5935 5937 5938 5940 5941
5834 5834 5836 5840 5845 5848 5850 5851 5855 5861 5865 5866 5867 5870 5873 5874 5876 5878 5879 5880 5881 5881 5881 5883 5884 5885 5886 5887 5888 5889 5890 5891 5893 5895 5897 5898 5899 5900 5901 5903 5904 5906 5909 5911 5913 5915 5918 5920 5922 5924 5926 5927 5928 5928 5929 5929 5930 5931 5933 5935 5936 5938 5939
5832 5834 5835 5838 5843 5845 5847 5849 5852 5856 5861 5864 5866 5870 5872 5873 5874 5875 5876 5878 5878 5879 5880 5882 5883 5884 5885 5885 5886 5888 5889 5891 5892 5894 5895 5896 5897 5898 5900 5901 5902 5903 5906 5908 5911 5914 5916 5918 5921 5923 5924 5925 5926 5927 5927 5928 5928 5930 5931 5933 5935 5936 5938
5829 5832 5834 5836 5838 5840 5843 5848 5850 5853 5858 5862 5864 5867 5869 5870 5872 5873 5874 5875 5874 5875 5878 5880 5881 5882 5883 5884 5885 5886 5888 5890 5891 5892 5893 5894 5895 5897 5898 5899 5900 5901 5903 5906 5910 5913 5914 5916 5918 5920 5921 5923 5924 5925 5926 5926 5928 5929 5930 5932 5933 5934 5935
5826 5829 5831 5833 5835 5838 5842 5846 5848 5852 5857 5861 5863 5865 5867 5868 5871 5872 5873 5872 5871 5873 5876 5877 5878 5879 5881 5882 5883 5884 5885 5887 5889 5890 5891 5893 5894 5895 5896 5897 5898 5900 5902 5905 5908 5910 5912 5913 5915 5916 5918 5919 5920 5921 5923 5925 5926 5928 5929 5930 5932 5933 5934
5822 5825 5827 5830 5834 5837 5841 5844 5848 5853 5856 5858 5860 5864 5866 5867 5869 5870 5870 5870 5870 5872 5874 5875 5876 5877 5879 5880 5881 5882 5883 5885 5887 5889 5890 5891 5893 5894 5895 5896 5897 5898 5900 5902 5904 5906 5908 5909 5911 5913 5915 5916 5917 5919 5921 5923 5925 5926 5927 5928 5930 5931 5933
5820 5823 5826 5829 5832 5835 5840 5845 5848 5850 5851 5852 5855 5859 5862 5863 5865 5867 5867 5867 5868 5869 5871 5873 5873 5874 5876 5878 5880 5881 5882 5883 5885 5887 5888 5890 5891 5892 5893 5894 5895 5896 5897 5898 5900 5902 5904 5905 5908 5911 5913 5914 5915 5917 5919 5921 5923 5924 5925 5926 5928 5929 5930
5819 5822 5825 5827 5830 5835 5840 5844 5845 5845 5847 5849 5851 5856 5858 5858 5861 5863 5863 5864 5866 5866 5868 5870 5871 5872 5874 5876 5878 5879 5880 5882 5884 5885 5886 5888 5890 5891 5891 5892 5894 5895 5895 5896 5896 5898 5900 5903 5905 5908 5910 5912 5913 5915 5916 5918 5920 5922 5923 5924 5926 5927 5928
5816 5820 5823 5826 5829 5832 5835 5837 5838 5841 5844 5847 5850 5854 5855 5854 5857 5859 5860 5862 5863 5863 5865 5867 5869 5871 5873 5874 5876 5877 5879 5881 5882 5883 5884 5886 5888 5889 5889 5891 5893 5894 5895 5895 5894 5895 5898 5901 5903 5906 5907 5909 5910 5912 5913 5914 5916 5918 5920 5922 5923 5924 5925
5815 5818 5821 5824 5826 5828 5829 5831 5834 5837 5840 5843 5846 5848 5849 5850 5854 5857 5857 5859 5860 5861 5863 5865 5867 5869 5871 5871 5873 5875 5877 5879 5881 5882 5882 5884 5886 5887 5887 5889 5891 5891 5892 5894 5894 5895 5897 5899 5901 5903 5904 5905 5907 5908 5909 5911 5913 5914 5916 5917 5918 5920 5921
5812 5817 5820 5821 5823 5825 5826 5827 5830 5832 5835 5838 5840 5843 5845 5848 5852 5854 5854 5855 5858 5859 5860 5862 5864 5867 5868 5870 5871 5873 5875 5877 5879 5881 5881 5882 5884 5885 5886 5888 5889 5888 5890 5891 5893 5894 5895 5897 5898 5899 5900 5902 5903 5904 5905 5907 5909 5910 5911 5914 5915 5917 5918
5810 5813 5817 5819 5821 5822 5822 5823 5827 5830 5832 5835 5836 5839 5843 5845 5848 5850 5850 5852 5856 5857 5858 5859 5862 5864 5866 5868 5869 5870 5872 5873 5875 5879 5880 5880 5881 5883 5884 5886 5885 5886 5887 5889 5890 5892 5893 5894 5895 5896 5898 5899 5900 5901 5901 5902 5904 5906 5908 5911 5913 5914 5915
5807 5810 5813 5817 5819 5818 5818 5820 5824 5827 5829 5831 5832 5835 5839 5842 5844 5846 5847 5850 5853 5855 5856 5857 5859 5861 5863 5866 5867 5868 5870 5870 5871 5875 5877 5877 5878 5881 5883 5883 5882 5883 5885 5886 5888 5889 5890 5892 5893 5894 5895 5897 5898 5899 5899 5899 5901 5903 5906 5908 5910 5912 5912
5806 5807 5810 5814 5814 5813 5814 5818 5821 5824 5826 5828 5829 5832 5835 5838 5840 5842 5844 5846 5849 5851 5853 5855 5856 5859 5862 5864 5865 5866 5867 5868 5868 5871 5874 5874 5876 5878 5879 5880 5881 5881 5883 5884 5885 5887 5888 5889 5890 5891 5893 5894 5896 5897 5898 5898 5899 5901 5903 5905 5907 5908 5909
5805 5806 5808 5809 5810 5810 5812 5815 5819 5822 5823 5825 5828 5830 5832 5835 5838 5839 5840 5842 5845 5847 5851 5852 5854 5857 5860 5861 5862 5863 5864 5864 5866 5869 5872 5873 5874 5875 5876 5878 5879 5880 5881 5882 5883 5885 5886 5887 5888 5889 5890 5892 5893 5895 5896 5897 5897 5898 5899 5901 5903 5905 5905
5803 5805 5806 5806 5808 5809 5811 5813 5816 5819 5821 5823 5825 5827 5829 5832 5835 5836 5837 5839 5841 5844 5847 5850 5852 5855 5856 5858 5859 5860 5860 5861 5863 5865 5867 5869 5870 5872 5873 5875 5877 5877 5878 5880 5881 5882 5884 5885 5887 5888 5888 5889 5890 5892 5894 5894 5894 5895 5897 5899 5901 5902 5902
5801 5803 5804 5805 5807 5808 5809 5811 5814 5816 5818 5820 5822 5825 5827 5829 5831 5834 5835 5836 5838 5841 5844 5847 5849 5851 5853 5854 5857 5858 5858 5858 5860 5861 5863 5864 5865 5867 5869 5871 5873 5874 5875 5877 5878 5880 5882 5883 5885 5886 5887 5887 5888 5889 5891 5892 5892 5893 5895 5897 5897 5898 5899
5799 5802 5803 5804 5805 5807 5807 5809 5812 5814 5816 5819 5821 5823 5825 5826 5828 5831 5832 5833 5835 5838 5841 5843 5845 5847 5849 5852 5854 5855 5856 5856 5857 5858 5861 5862 5863 5863 5864 5866 5867 5870 5872 5874 5875 5877 5879 5881 5882 5883 5885 5885 5886 5886 5888 5889 5889 5891 5893 5894 5894 5894 5896
5798 5800 5801 5802 5803 5806 5807 5808 5811 5813 5815 5817 5819 5820 5821 5823 5825 5827 5829 5830 5832 5835 5838 5841 5842 5843 5845 5848 5850 5851 5852 5853 5854 5855 5857 5860 5860 5861 5862 5862 5862 5864 5867 5869 5871 5873 5875 5877 5879 5880 5882 5883 5883 5884 5885 5887 5887 5888 5889 5890 5891 5891 5893
5796 5797 5799 5800 5802 5804 5805 5807 5809 5811 5813 5815 5816 5817 5819 5822 5823 5824 5826 5827 5830 5833 5836 5838 5838 5839 5841 5843 5845 5847 5849 5849 5850 5851 5853 5855 5857 5858 5860 5860 5860 5860 5862 5865 5867 5869 5871 5872 5874 5876 5878 5879 5880 5881 5882 5884 5885 5885 5886 5887 5888 5888 5890
5795 5796 5797 5798 5799 5801 5803 5805 5807 5809 5810 5812 5813 5815 5818 5820 5821 5822 5824 5825 5827 5830 5832 5833 5834 5835 5838 5840 5841 5843 5845 5845 5846 5848 5849 5850 5852 5854 5855 5856 5857 5858 5860 5861 5863 5865 5866 5868 5870 5872 5874 5876 5877 5878 5879 5880 5882 5883 5883 5884 5885 5885 5886
5794 5795 5795 5795 5796 5798 5801 5803 5805 5807 5808 5810 5811 5814 5816 5817 5819 5820 5822 5823 5824 5827 5828 5829 5829 5831 5833 5836 5837 5838 5840 5841 5843 5844 5845 5846 5848 5849 5850 5852 5854 5855 5856 5858 5859 5860 5862 5864 5865 5867 5869 5871 5873 5875 5876 5877 5878 5880 5880 5880 5881 5882 5883
5792 5793 5794 5795 5796 5797 5799 5801 5803 5805 5807 5808 5810 5812 5813 5815 5817 5818 5819 5821 5822 5823 5825 5825 5826 5827 5829 5831 5832 5834 5835 5837 5838 5840 5842 5843 5844 5845 5846 5848 5850 5852 5853 5854 5855 5856 5857 5859 5861 5863 5864 5866 5869 5871 5871 5872 5874 5875 5876 5877 5877 5879 5880
5791 5792 5793 5794 5795 5796 5798 5799 5801 5803 5805 5806 5808 5810 5811 5813 5814 5816 5817 5818 5819 5820 5821 5822 5822 5824 5825 5826 5828 5829 5830 5832 5834 5836 5837 5839 5839 5841 5843 5844 5845 5847 5849 5850 5852 5852 5853 5854 5856 5858 5859 5861 5864 5866 5867 5868 5869 5870 5872 5873 5874 5875 5876
5790 5791 5792 5793 5794 5796 5797 5798 5799 5801 5802 5804 5806 5807 5809 5810 5811 5813 5814 5815 5816 5817 5818 5819 5820 5821 5822 5823 5824 5824 5826 5827 5829 5831 5833 5833 5834 5836 5838 5839 5841 5843 5844 5846 5847 5848 5849 5850 5852 5853 5854 5856 5858 5860 5862 5863 5865 5866 5867 5868 5869 5870 5872
5790 5791 5792 5793 5794 5795 5796 5797 5798 5800 5801 5802 5804 5805 5806 5807 5808 5810 5811 5812 5813 5814 5815 5816 5817 5818 5819 5820 5820 5821 5822 5823 5824 5826 5827 5828 5829 5831 5833 5834 5835 5837 5839 5840 5842 5843 5844 5845 5847 5848 5850 5851 5853 5855 5857 5859 5860 5861 5862 5863 5865 5866 5867
5789 5790 5791 5792 5793 5794 5795 5796 5797 5798 5800 5801 5802 5803 5804 5805 5806 5807 5808 5809 5810 5811 5812 5812 5813 5814 5815 5816 5816 5817 5818 5819 5820 5820 5822 5823 5824 5825 5827 5828 5829 5831 5833 5834 5836 5837 5838 5840 5841 5843 5844 5846 5848 5849 5851 5853 5855 5856 5857 5858 5859 5861 5862
5789 5790 5791 5791 5792 5793 5795 5796 5796 5797 5798 5799 5800 5801 5802 5803 5804 5804 5805 5806 5807 5807 5808 5809 5809 5810 5811 5811 5812 5812 5813 5814 5814 5815 5816 5817 5818 5819 5821 5822 5823 5824 5826 5828 5829 5831 5833 5834 5836 5837 5839 5840 5842 5844 5845 5847 5849 5850 5852 5853 5854 5855 5856
5788 5789 5791 5791 5792 5793 5794 5795 5796 5796 5797 5798 5799 5799 5800 5801 5802 5802 5803 5804 5804 5805 5805 5805 5806 5806 5807 5807 5807 5808 5808 5809 5809 5809 5810 5811 5812 5813 5815 5816 5817 5818 5819 5821 5823 5825 5827 5828 5830 5831 5833 5835 5837 5838 5840 5841 5843 5844 5846 5847 5849 5850 5851
5787 5788 5790 5790 5790 5791 5793 5793 5794 5795 5795 5796 5797 5797 5798 5799 5799 5800 5801 5801 5802 5802 5802 5803 5803 5803 5803 5803 5803 5803 5804 5804 5804 5804 5804 5805 5806 5807 5808 5810 5811 5812 5812 5814 5816 5818 5820 5822 5824 5826 5827 5829 5831 5832 5834 5835 5837 5838 5839 5841 5842 5843 5845
5785 5786 5787 5788 5788 5789 5790 5791 5792 5792 5793 5794 5794 5795 5795 5796 5797 5797 5798 5798 5798 5799 5799 5799 5799 5799 5799 5799 5799 5799 5799 5799 5799 5799 5799 5800 5800 5801 5802 5803 5804 5804 5805 5807 5809 5811 5813 5815 5817 5819 5820 5822 5824 5826 5827 5829 5830 5832 5833 5834 5835 5837 5838
5783 5784 5785 5786 5786 5786 5787 5788 5789 5789 5790 5790 5791 5791 5792 5792 5792 5793 5793 5794 5794 5795 5795 5795 5796 5796 5795 5795 5795 5795 5795 5794 5794 5794 5794 5795 5795 5795 5796 5797 5797 5798 5799 5800 5801 5803 5805 5807 5809 5811 5813 5815 5816 5818 5820 5821 5823 5825 5826 5827 5828 5830 5831